EN

Hourly Weather Topkoe

Today, 12 April, Monday

Time Temperature Precipitation Wind Pressure Humidity
00:00 +5°C° 0 mm 3 mps 750 mmHg 69%
01:00 +4°C° 0 mm 3 mps 750 mmHg 70%
02:00 +4°C° 0 mm 3 mps 750 mmHg 71%
03:00 +4°C° 0 mm 4 mps 750 mmHg 69%
04:00 +4°C° 0 mm 4 mps 749 mmHg 68%
05:00 +2°C° 0 mm 5 mps 749 mmHg 66%
06:00 +3°C° 0.3 mm 5 mps 749 mmHg 71%
07:00 +3°C° 0.3 mm 5 mps 749 mmHg 77%
08:00 +5°C° 0.3 mm 5 mps 749 mmHg 82%
09:00 +7°C° 0 mm 5 mps 748 mmHg 79%
10:00 +8°C° 0 mm 5 mps 748 mmHg 77%
11:00 +10°C° 0 mm 5 mps 748 mmHg 74%
12:00 +13°C° 0 mm 5 mps 747 mmHg 70%
13:00 +14°C° 0 mm 5 mps 747 mmHg 67%
14:00 +15°C° 0 mm 6 mps 747 mmHg 63%
15:00 +15°C° 0 mm 5 mps 747 mmHg 63%
16:00 +15°C° 0 mm 5 mps 746 mmHg 64%
17:00 +15°C° 0 mm 4 mps 746 mmHg 64%
18:00 +14°C° 0 mm 4 mps 746 mmHg 66%
19:00 +13°C° 0 mm 5 mps 746 mmHg 69%
20:00 +12°C° 0 mm 5 mps 746 mmHg 71%
21:00 +12°C° 0 mm 5 mps 746 mmHg 71%
22:00 +10°C° 0 mm 5 mps 746 mmHg 71%
23:00 +10°C° 0 mm 5 mps 746 mmHg 71%

Tomorrow, 13 April, Tuesday

Time Temperature Precipitation Wind Pressure Humidity
00:00 +10°C° 0 mm 4 mps 746 mmHg 75%
01:00 +10°C° 0 mm 4 mps 746 mmHg 78%
02:00 +9°C° 0 mm 3 mps 746 mmHg 81%
03:00 +8°C° 0 mm 3 mps 746 mmHg 82%
04:00 +8°C° 0 mm 3 mps 746 mmHg 83%
05:00 +8°C° 0 mm 3 mps 746 mmHg 84%
06:00 +8°C° 0 mm 4 mps 746 mmHg 78%
07:00 +11°C° 0 mm 4 mps 746 mmHg 71%
08:00 +12°C° 0 mm 5 mps 746 mmHg 65%
09:00 +14°C° 0 mm 5 mps 746 mmHg 59%
10:00 +16°C° 0 mm 6 mps 746 mmHg 53%
11:00 +19°C° 0 mm 6 mps 746 mmHg 46%
12:00 +19°C° 0 mm 6 mps 746 mmHg 43%
13:00 +20°C° 0 mm 7 mps 746 mmHg 39%
14:00 +21°C° 0 mm 7 mps 745 mmHg 35%
15:00 +20°C° 0 mm 6 mps 745 mmHg 38%
16:00 +19°C° 0 mm 5 mps 745 mmHg 42%
17:00 +19°C° 0 mm 5 mps 744 mmHg 45%
18:00 +17°C° 0 mm 4 mps 745 mmHg 51%
19:00 +15°C° 0 mm 4 mps 745 mmHg 57%
20:00 +13°C° 0 mm 3 mps 745 mmHg 64%
21:00 +13°C° 0 mm 3 mps 744 mmHg 66%
22:00 +12°C° 0 mm 3 mps 744 mmHg 68%
23:00 +11°C° 0 mm 3 mps 744 mmHg 71%

Day after tomorrow, 14 April, Wednesday

Time Temperature Precipitation Wind Pressure Humidity
00:00 +11°C° 0 mm 3 mps 744 mmHg 73%
01:00 +10°C° 0 mm 3 mps 744 mmHg 76%
02:00 +10°C° 0 mm 3 mps 744 mmHg 79%
03:00 +10°C° 0 mm 3 mps 744 mmHg 80%
04:00 +10°C° 0 mm 3 mps 744 mmHg 82%
05:00 +9°C° 0 mm 3 mps 743 mmHg 84%
06:00 +10°C° 0 mm 3 mps 743 mmHg 78%
07:00 +12°C° 0 mm 3 mps 743 mmHg 72%
08:00 +13°C° 0 mm 4 mps 743 mmHg 66%
09:00 +14°C° 0 mm 4 mps 743 mmHg 56%
10:00 +16°C° 0 mm 5 mps 743 mmHg 47%
11:00 +17°C° 0 mm 5 mps 743 mmHg 38%
12:00 +19°C° 0 mm 5 mps 742 mmHg 37%
13:00 +19°C° 0 mm 5 mps 742 mmHg 35%
14:00 +20°C° 0 mm 5 mps 742 mmHg 34%
15:00 +19°C° 0 mm 5 mps 741 mmHg 38%
16:00 +19°C° 0 mm 4 mps 741 mmHg 42%
17:00 +18°C° 0 mm 3 mps 741 mmHg 46%
18:00 +17°C° 0 mm 3 mps 741 mmHg 53%
19:00 +15°C° 0 mm 2 mps 741 mmHg 59%
20:00 +14°C° 0 mm 1 mps 741 mmHg 65%
21:00 +13°C° 0.1 mm 2 mps 741 mmHg 69%
22:00 +13°C° 0.1 mm 2 mps 741 mmHg 73%
23:00 +12°C° 0.1 mm 2 mps 741 mmHg 76%

15 April, Thursday

Time Temperature Precipitation Wind Pressure Humidity
00:00 +12°C° 0 mm 2 mps 741 mmHg 77%
01:00 +12°C° 0 mm 2 mps 741 mmHg 78%
02:00 +11°C° 0 mm 1 mps 741 mmHg 79%
03:00 +11°C° 0 mm 1 mps 741 mmHg 80%
04:00 +11°C° 0 mm 1 mps 741 mmHg 80%
05:00 +11°C° 0 mm 1 mps 741 mmHg 81%
06:00 +12°C° 0 mm 1 mps 741 mmHg 76%
07:00 +13°C° 0 mm 1 mps 741 mmHg 72%
08:00 +14°C° 0 mm 1 mps 741 mmHg 67%
09:00 +15°C° 0 mm 1 mps 741 mmHg 63%
10:00 +15°C° 0 mm 2 mps 741 mmHg 59%
11:00 +16°C° 0 mm 2 mps 741 mmHg 54%
12:00 +17°C° 0 mm 2 mps 740 mmHg 50%
13:00 +17°C° 0 mm 2 mps 740 mmHg 47%
14:00 +18°C° 0 mm 3 mps 740 mmHg 43%
15:00 +18°C° 0 mm 2 mps 739 mmHg 44%
16:00 +18°C° 0 mm 2 mps 739 mmHg 46%
17:00 +18°C° 0 mm 2 mps 739 mmHg 48%
18:00 +16°C° 0 mm 2 mps 739 mmHg 52%
19:00 +15°C° 0 mm 2 mps 739 mmHg 56%
20:00 +14°C° 0 mm 1 mps 739 mmHg 60%
21:00 +14°C° 0 mm 2 mps 739 mmHg 60%
22:00 +14°C° 0 mm 2 mps 739 mmHg 60%
23:00 +13°C° 0 mm 2 mps 738 mmHg 60%

16 April, Friday

Time Temperature Precipitation Wind Pressure Humidity
00:00 +13°C° 0 mm 2 mps 738 mmHg 61%
01:00 +13°C° 0 mm 2 mps 738 mmHg 61%
02:00 +13°C° 0 mm 2 mps 738 mmHg 62%
03:00 +11°C° 0 mm 3 mps 738 mmHg 64%
04:00 +11°C° 0 mm 4 mps 738 mmHg 67%
05:00 +11°C° 0 mm 4 mps 738 mmHg 70%
06:00 +11°C° 0 mm 4 mps 738 mmHg 69%
07:00 +12°C° 0 mm 3 mps 738 mmHg 69%
08:00 +12°C° 0 mm 3 mps 738 mmHg 69%
09:00 +13°C° 0.2 mm 4 mps 739 mmHg 66%
10:00 +14°C° 0.2 mm 4 mps 739 mmHg 64%
11:00 +14°C° 0.2 mm 5 mps 739 mmHg 61%
12:00 +14°C° 0.4 mm 5 mps 739 mmHg 65%
13:00 +13°C° 0.4 mm 4 mps 739 mmHg 70%
14:00 +13°C° 0.4 mm 3 mps 739 mmHg 75%
15:00 +13°C° 0.2 mm 3 mps 739 mmHg 74%
16:00 +14°C° 0.2 mm 2 mps 739 mmHg 74%
17:00 +14°C° 0.2 mm 2 mps 739 mmHg 74%
18:00 +13°C° 0.2 mm 2 mps 739 mmHg 78%
19:00 +12°C° 0.2 mm 2 mps 739 mmHg 82%
20:00 +10°C° 0.2 mm 2 mps 739 mmHg 87%
21:00 +10°C° 0.5 mm 3 mps 740 mmHg 88%
22:00 +10°C° 0.5 mm 4 mps 740 mmHg 90%
23:00 +9°C° 0.5 mm 5 mps 740 mmHg 92%

17 April, Saturday

Time Temperature Precipitation Wind Pressure Humidity
00:00 +9°C° 1 mm 5 mps 740 mmHg 92%
01:00 +9°C° 1 mm 5 mps 740 mmHg 92%
02:00 +9°C° 1 mm 5 mps 740 mmHg 92%
03:00 +8°C° 0.6 mm 6 mps 741 mmHg 92%
04:00 +8°C° 0.6 mm 6 mps 741 mmHg 92%
05:00 +8°C° 0.6 mm 6 mps 742 mmHg 91%
06:00 +7°C° 1.5 mm 6 mps 742 mmHg 90%
07:00 +6°C° 1.5 mm 7 mps 743 mmHg 90%
08:00 +6°C° 1.5 mm 7 mps 744 mmHg 89%
09:00 +6°C° 0.2 mm 7 mps 744 mmHg 87%
10:00 +6°C° 0.2 mm 7 mps 745 mmHg 85%
11:00 +6°C° 0.2 mm 7 mps 745 mmHg 83%
12:00 +6°C° 0.4 mm 7 mps 746 mmHg 80%
13:00 +7°C° 0.4 mm 6 mps 746 mmHg 78%
14:00 +6°C° 0.4 mm 5 mps 747 mmHg 75%
15:00 +7°C° 0.1 mm 5 mps 747 mmHg 71%
16:00 +8°C° 0.1 mm 5 mps 747 mmHg 66%
17:00 +8°C° 0.1 mm 5 mps 748 mmHg 61%
18:00 +7°C° 0 mm 5 mps 748 mmHg 62%
19:00 +6°C° 0 mm 5 mps 748 mmHg 63%
20:00 +6°C° 0 mm 5 mps 749 mmHg 64%
21:00 +5°C° 0 mm 5 mps 749 mmHg 65%
22:00 +3°C° 0 mm 5 mps 749 mmHg 66%
23:00 +3°C° 0 mm 5 mps 750 mmHg 67%
Show more

We Need Your Consent

Meteoprog and our Service Providers may store and access personal data such as cookies, device identifiers or other similar technologies on your device and process such data to personalise content and ads, as well as provide social media features and to analyse the traffic.

  • Store and/or access information on your device

    Cookies, device identifiers or other information can be stored or accessed on your device for the purposes indicated above.

  • Personalised ads and content, ad and content measurement, audience insights, and products development

    Ads and content can be personalised based on a profile. More data can be added to better personalise ads and content. Ad and content performance can be measured. Insights about the audience who saw the ads and content can be derived. Such data can be used to develop or improve user’s experience, systems and software.

By clicking ‘I Agree’ you will allow the use of indicated cookies, device identifiers, web beacons or other similar technologies. Your settings can be changed in the browser on your device.

For certain purposes, legitimate interests may be relied on, rather than consent. You can read more about this in our Privacy and Cookie Policy.